Location: Mentone
(34.5413°N, 85.5351°W)
Time: 05:52:51
(UTC-05:00)

Transit 2A Rocket - Visible Passes

Search period start: 03 September 2015 00:00
Search period end: 13 September 2015 00:00
Orbit: 593 x 913 km, 66.7° (Epoch: 01 September)

Date Brightness Start Highest point End Pass type
(mag) Time Alt. Az. Time Alt. Az. Time Alt. Az.
03 Sep 7.5 22:26:03 10° NNW 22:26:27 12° NNW 22:26:27 12° NNW visible
04 Sep 6.9 21:44:08 10° N 21:45:24 18° N 21:45:24 18° N visible
05 Sep 6.5 21:02:36 10° N 21:04:23 17° NNE 21:04:23 17° NNE visible
06 Sep 6.7 20:22:04 10° NNE 20:23:18 11° NE 20:23:24 11° NE visible
06 Sep 7.1 22:02:08 10° NNW 22:03:20 18° NW 22:03:20 18° NW visible
07 Sep 5.9 21:19:59 10° NNW 21:22:25 32° N 21:22:25 32° N visible
08 Sep 5.6 20:38:11 10° N 20:41:33 30° NE 20:41:33 30° NE visible
08 Sep 7.7 22:21:21 10° WNW 22:21:29 11° WNW 22:21:29 11° WNW visible
09 Sep 6.2 19:56:50 10° N 19:59:38 17° NE 20:00:45 16° ENE visible
09 Sep 6.5 21:38:24 10° NW 21:40:42 26° WNW 21:40:42 26° WNW visible
10 Sep 4.6 20:56:00 10° NNW 20:59:59 72° WNW 20:59:59 72° WNW visible
11 Sep 4.7 20:13:58 10° NNW 20:18:10 50° ENE 20:19:21 38° ESE visible
11 Sep 7.5 21:59:05 10° W 21:59:18 10° W 21:59:18 10° W visible
12 Sep 5.6 19:32:16 10° N 19:35:52 26° NE 19:38:49 13° ESE visible
12 Sep 6.5 21:14:56 10° WNW 21:18:20 22° WSW 21:18:47 22° WSW visible
